Weather Roundup
Issued by NWS

Home | Current Version | Previous Version | Text Only | Print | Product List | Glossary On
Versions: 1 2 3 4 5 6 7 8 9 10 11 12 13 14 15 16 17 18 19 20 21 22 23 24 25 26 27 28 29 30 31 32 33 34 35 36 37 38 39 40 41 42 43 44 45 46 47 48 49 50
000
NZUS93 KARX 021010
HRRWXR

CURRENT HOURLY OBSERVATIONS ACROSS
MUCH OF THE UPPER MISSISSIPPI VALLEY
NATIONAL WEATHER SERVICE LA CROSSE WI
500 AM CDT SUN AUG 02 2015


...SOUTHEAST MINNESOTA...


CITY           SKY/WX    TMP DP  RH WIND       PRES   REMARKS
ROCHESTER      MOCLDY    70  67  90 SW16      29.76F
ROCHESTER/MAYO PTSUNNY   71  67  89 SW17G25   29.74F
WINONA         CLEAR     73  68  83 SW5       29.72F
AUSTIN         MOCLDY    70  66  88 SW8       29.77F
ALBERT LEA     PTCLDY    72  66  83 SW9       29.76F
DODGE CENTER   PTCLDY    70  64  83 SW12G20   29.75F
PRESTON        MOCLDY    70  66  86 SW14      29.78F
OWATONNA       PTCLDY    70  63  78 SW9       29.73F
FARIBAULT      PTCLDY    70  64  83 S8        29.71F
$$

...ELSEWHERE IN MINNESOTA...


CITY           SKY/WX    TMP DP  RH WIND       PRES   REMARKS
MINNEAPOLIS    PTCLDY    74  64  71 SW12G22   29.63F
INTNL FALLS    MOCLDY    59  57  93 N5        29.63F
DULUTH         CLOUDY    67  57  70 N10       29.65F
RED WING       CLEAR     72  64  78 SW3       29.67F
REDWOOD FALLS  CLEAR     69  63  81 SW13      29.69R
MANKATO        CLEAR     70  63  78 SW10      29.69F
WORTHINGTON    CLEAR     70  61  73 SW13      29.76S
FAIRMONT       CLEAR     70  61  73 SW9       29.75F
$$

...SOUTHWEST WISCONSIN...


CITY           SKY/WX    TMP DP  RH WIND       PRES   REMARKS
LA CROSSE      PTCLDY    74  68  81 VRB7      29.73F
PRAIRIE DU CHI CLEAR     73  67  82 SW6       29.78F
BOSCOBEL       PTCLDY    71  68  90 SW3       29.78F
LONE ROCK      PTCLDY    70  66  87 CALM      29.79F
PLATTEVILLE    PTCLDY    69  68  96 SW7       29.83S
FORT MC COY    PTCLDY    71  67  88 CALM      29.74F
CAMP DOUGLAS   MOCLDY    74  74 100 SW10      29.74F FOG
VIROQUA        FAIR      71  70  97 SW9       29.78F
WIS DELLS      PTCLDY    72  66  82 SW7       29.77F
$$

...ELSEWHERE IN WISCONSIN...


CITY           SKY/WX    TMP DP  RH WIND       PRES   REMARKS
MILWAUKEE      MOCLDY    72  65  78 SW10      29.81S
MADISON        PTCLDY    75  67  76 VRB3      29.79F
GREEN BAY      CLOUDY    69  64  84 W5        29.74F
EAU CLAIRE     CLEAR     69  65  86 S7        29.67F
BLACK RVR FLS  FAIR      70  70 100 CALM      29.72F
MEDFORD        PTCLDY    66  64  94 SW8       29.71F
WAUSAU         MOCLDY    65  64  97 SE5       29.72F
WIS RAPIDS     LGT RAIN  70  65  84 S6        29.75F
MARSHFIELD     MOCLDY    65  61  87 SW6       29.74F
RICE LAKE      CLEAR     67  63  87 SE5       29.66F
$$

...NORTHEAST IOWA...


CITY           SKY/WX    TMP DP  RH WIND       PRES   REMARKS
DECORAH        PTCLDY    72  70  94 SW9       29.77F
MASON CITY     PTCLDY    72  67  84 SW20      29.80F
CHARLES CITY   PTCLDY    70  70 100 SW9       29.79F
OELWEIN        PTCLDY    70  68  94 SW8       29.82F
$$

...ELSEWHERE IN IOWA...


CITY           SKY/WX    TMP DP  RH WIND       PRES   REMARKS
DES MOINES     MOCLDY    74  60  61 SW13      29.83F
IOWA CITY      CLEAR     67  66  97 S5        29.85F
FORT DODGE     CLEAR     68  63  83 SW8       29.82S
$$

...NORTHERN ILLINOIS...


CITY           SKY/WX    TMP DP  RH WIND       PRES   REMARKS
CHICAGO-OHARE  PTCLDY    72  67  84 W10       29.86S
CHICAGO-MIDWAY PTCLDY    73  66  78 SW8       29.87S
MOLINE         CLEAR     71  67  87 SW7       29.86F
ROCKFORD       PTCLDY    69  66  90 S5        29.86F
PEORIA         CLEAR     69  65  86 SW5       29.91S
$$

NOTE: "FAIR" INDICATES FEW OR NO CLOUDS BELOW 12,000 FEET WITH NO
SIGNIFICANT WEATHER AND/OR OBSTRUCTIONS TO VISIBILITY. WIND
SPEEDS ARE IN MILES-PER-HOUR.



USA.gov is the U.S. government's official web portal to all federal, state and local government web resources and services.